IK3CSU Weather Reports


time (UTC)temp
F
wind
direction
speed
knots
gust
knots
rain 1hr
in
rain 24hr
in
rain mn
in
humidity
%
barometer
mb
20260507210010 58 35 0.0 3.5 0.00 0.01 0.01 81 1014.8
20260507205110 58 109 0.0 3.5 0.00 0.01 0.01 80 1014.8
20260507204210 58 55 0.0 2.6 0.00 0.01 0.01 79 1014.8
20260507203310 59 108 0.0 2.6 0.00 0.01 0.01 79 1014.7
20260507202411 59 20 0.9 3.5 0.00 0.01 0.01 77 1014.6
20260507201510 59 19 2.6 7.0 0.00 0.01 0.01 76 1014.5
20260507200821 59 2 1.7 6.1 0.00 0.01 0.01 74 1014.5
20260507195924 60 12 1.7 3.5 0.00 0.01 0.01 72 1014.5
20260507195021 60 356 0.0 3.5 0.00 0.01 0.01 71 1014.5
20260507193910 60 81 0.0 2.6 0.00 0.01 0.01 71 1014.2
20260507193010 60 14 0.9 3.5 0.00 0.01 0.01 71 1014.0
20260507192323 60 25 1.7 4.3 0.00 0.01 0.01 71 1013.8
20260507191420 60 9 0.9 2.6 0.00 0.01 0.01 71 1013.9
20260507190310 60 4 0.9 3.5 0.00 0.01 0.01 70 1013.6
20260507185620 60 24 0.0 3.5 0.00 0.01 0.01 70 1013.7
20260507184722 61 24 0.0 2.6 0.00 0.01 0.01 69 1013.5
20260507183610 61 30 0.0 2.6 0.00 0.01 0.01 67 1013.3
20260507182922 62 41 0.9 2.6 0.00 0.01 0.01 65 1013.2
20260507181810 63 109 0.9 3.5 0.00 0.01 0.01 63 1013.1
20260507181122 63 129 0.9 3.5 0.00 0.01 0.01 63 1013.0
20260507180224 63 115 0.0 3.5 0.00 0.01 0.01 63 1012.7
20260507175110 63 123 0.9 3.5 0.00 0.01 0.01 64 1012.6
20260507174210 64 126 0.9 4.3 0.00 0.01 0.01 64 1012.4
20260507173521 64 119 0.9 5.2 0.00 0.01 0.01 65 1012.4
20260507172623 64 106 0.9 5.2 0.00 0.01 0.01 66 1012.3
20260507171510 64 98 1.7 6.1 0.00 0.01 0.01 66 1012.2
20260507170823 64 131 0.9 4.3 0.00 0.01 0.01 66 1012.1
20260507165920 64 144 0.9 4.3 0.00 0.01 0.01 65 1012.2
20260507164810 65 118 0.9 6.1 0.00 0.01 0.01 66 1012.3
20260507163910 65 118 1.7 9.6 0.00 0.01 0.01 66 1012.3
20260507163222 65 94 1.7 9.6 0.00 0.01 0.01 66 1012.3
20260507162320 66 130 1.7 7.0 0.00 0.01 0.01 62 1012.3
20260507161422 66 125 1.7 6.1 0.00 0.01 0.01 61 1012.2
20260507160310 66 103 2.6 9.6 0.00 0.01 0.01 59 1012.2
20260507155622 67 111 2.6 9.6 0.00 0.01 0.01 58 1012.2
20260507154724 67 101 2.6 7.0 0.00 0.01 0.01 57 1012.1
20260507153821 66 114 2.6 7.0 0.00 0.01 0.01 53 1012.1
20260507152710 66 95 3.5 7.8 0.00 0.01 0.01 49 1012.0
20260507151810 66 99 3.5 7.8 0.00 0.01 0.01 46 1011.9
20260507151123 66 61 2.6 7.0 0.00 0.01 0.01 49 1011.8
20260507150221 65 70 2.6 7.8 0.00 0.01 0.01 52 1011.8
20260507145323 64 58 2.6 7.0 0.00 0.01 0.01 54 1011.8
20260507144420 65 60 4.3 12.2 0.00 0.01 0.01 54 1012.0
20260507143310 67 43 3.5 11.3 0.00 0.01 0.01 52 1011.6
20260507142411 66 331 2.6 9.6 0.00 0.01 0.01 52 1010.9
20260507141723 66 341 3.5 14.8 0.00 0.02 0.01 51 1011.2
20260507140820 69 174 4.3 14.8 0.00 0.06 0.01 48 1011.5
20260507135922 70 166 2.6 7.8 0.00 0.06 0.01 47 1011.2
20260507134810 70 174 1.7 3.5 0.00 0.09 0.01 51 1011.3
20260507133910 70 175 1.7 6.1 0.00 0.13 0.01 50 1011.3
20260507133224 70 192 2.6 7.0 0.00 0.15 0.01 50 1011.3
20260507132322 71 173 1.7 7.0 0.00 0.17 0.01 50 1011.4
20260507131424 70 140 1.7 7.0 0.00 0.17 0.01 52 1011.5
20260507130310 71 130 1.7 7.0 0.00 0.17 0.01 50 1011.6
20260507125410 71 165 2.6 9.6 0.00 0.17 0.01 49 1011.6
20260507124721 72 163 2.6 7.0 0.00 0.17 0.01 49 1011.5
20260507123610 73 167 1.7 7.0 0.00 0.17 0.01 45 1011.4
20260507122710 72 213 3.5 7.0 0.00 0.17 0.01 43 1011.4
20260507121810 73 221 2.6 7.8 0.00 0.17 0.01 44 1011.6
20260507121120 73 179 1.7 7.8 0.00 0.17 0.01 43 1011.5
20260507120010 72 175 1.7 7.0 0.00 0.17 0.01 42 1011.6
20260507115320 72 212 1.7 7.0 0.00 0.17 0.01 43 1011.7
20260507114422 72 188 0.9 6.1 0.00 0.17 0.01 44 1011.7
20260507113520 71 220 1.7 6.1 0.00 0.17 0.01 44 1011.7
20260507112622 71 208 2.6 6.1 0.00 0.17 0.01 42 1012.0
20260507111510 71 205 1.7 7.0 0.00 0.17 0.01 43 1011.9
20260507110610 70 190 0.9 3.5 0.00 0.18 0.01 46 1012.0
20260507105924 70 221 2.6 7.0 0.00 0.18 0.01 46 1012.1
20260507105021 71 192 1.7 7.0 0.00 0.18 0.01 45 1012.1
20260507104124 70 210 1.7 6.1 0.00 0.18 0.01 51 1012.2
20260507103010 69 228 1.7 6.1 0.00 0.18 0.01 52 1012.3
20260507102110 69 223 2.6 8.7 0.00 0.18 0.01 49 1012.3
20260507101210 69 203 0.0 3.5 0.00 0.18 0.01 52 1012.4
20260507100310 69 160 0.9 3.5 0.00 0.18 0.01 57 1012.5
20260507095620 68 214 1.7 6.1 0.00 0.18 0.01 58 1012.5
20260507094510 68 216 1.7 6.1 0.00 0.19 0.01 59 1012.5
20260507093610 67 221 1.7 7.0 0.00 0.19 0.01 61 1012.4
20260507092710 67 240 1.7 6.1 0.00 0.19 0.01 60 1012.4
20260507092020 67 221 1.7 5.2 0.00 0.19 0.01 59 1012.3
20260507091122 68 226 0.9 5.2 0.00 0.19 0.01 60 1012.4
20260507090225 70 190 0.9 4.3 0.00 0.19 0.01 66 1012.4
20260507085110 68 211 1.7 4.3 0.00 0.19 0.01 68 1012.3
20260507084424 68 221 0.9 3.5 0.00 0.19 0.01 72 1012.3
20260507083310 65 212 1.7 5.2 0.00 0.19 0.01 73 1012.4
20260507082624 66 224 2.6 7.0 0.00 0.19 0.01 72 1012.3
20260507081721 67 181 0.9 3.5 0.00 0.19 0.01 76 1012.2
20260507080610 65 43 0.9 2.6 0.01 0.19 0.01 83 1012.2
20260507075710 64 296 0.0 2.6 0.01 0.19 0.01 84 1012.2
20260507074810 65 314 0.9 3.5 0.01 0.19 0.01 85 1012.1
20260507073911 64 23 1.7 5.2 0.01 0.19 0.01 89 1012.1
20260507073223 64 13 1.7 5.2 0.01 0.19 0.01 91 1012.0
20260507072111 62 347 1.7 4.3 0.01 0.19 0.01 96 1012.1
20260507071423 62 9 0.9 3.5 0.00 0.18 0.00 99 1012.0
20260507070520 61 265 0.0 2.6 0.00 0.18 0.00 99 1012.1
20260507065410 60 6 0.9 3.5 0.00 0.18 0.00 99 1012.1
20260507064720 60 331 0.0 3.5 0.00 0.18 0.00 99 1012.0
20260507063822 59 282 0.0 1.7 0.00 0.18 0.00 99 1011.9
20260507062710 58 27 0.0 1.7 0.00 0.18 0.00 99 1011.9
20260507061810 57 190 0.0 1.7 0.00 0.18 0.00 99 1011.8
20260507060910 57 225 0.0 0.9 0.00 0.18 0.00 99 1011.8
20260507060221 57 216 0.0 2.6 0.00 0.18 0.00 99 1011.8
20260507055324 57 231 0.0 1.7 0.00 0.18 0.00 99 1011.9
20260507054210 56 225 0.0 0.9 0.00 0.18 0.00 99 1011.7
20260507053523 56 239 0.0 1.7 0.00 0.18 0.00 99 1011.6
20260507052621 55 237 0.0 1.7 0.00 0.18 0.00 99 1011.6
20260507051723 55 249 0.0 1.7 0.00 0.18 0.00 99 1011.4
20260507050610 55 254 0.0 1.7 0.00 0.18 0.00 99 1011.4
20260507045923 55 0 0.0 0.0 0.00 0.18 0.00 99 1011.3
20260507045020 55 0 0.0 0.0 0.00 0.18 0.00 99 1011.2
20260507043910 55 0 0.0 0.0 0.00 0.18 0.00 99 1011.0
20260507043220 55 0 0.0 0.0 0.00 0.18 0.00 99 1010.8
20260507042322 55 0 0.0 0.0 0.00 0.18 0.00 99 1010.6
20260507041419 55 0 0.0 0.0 0.00 0.18 0.00 99 1010.6
20260507040310 55 85 0.0 1.7 0.00 0.18 0.00 99 1010.5
20260507035624 55 77 0.0 1.7 0.00 0.18 0.00 99 1010.6
20260507034722 55 360 0.0 2.6 0.00 0.18 0.00 99 1010.5
20260507033824 55 13 0.0 2.6 0.00 0.18 0.00 99 1010.3
20260507032921 56 28 0.0 3.5 0.00 0.18 0.00 99 1010.4
20260507032024 56 346 0.0 2.6 0.00 0.18 0.00 99 1010.4
20260507031121 56 315 0.0 1.7 0.00 0.18 0.00 99 1010.4
20260507030010 56 358 0.0 1.7 0.00 0.18 0.00 99 1010.4
20260507025321 56 21 0.0 1.7 0.00 0.18 0.00 99 1010.4
20260507024210 56 90 0.0 1.7 0.00 0.18 0.00 99 1010.4
20260507023520 56 42 0.0 2.6 0.00 0.18 0.00 99 1010.5
20260507022623 56 14 1.7 3.5 0.00 0.18 0.00 99 1010.4
20260507021510 56 1 1.7 4.3 0.00 0.18 0.00 99 1010.4
20260507020610 56 341 1.7 5.2 0.00 0.18 0.00 99 1010.5
20260507015710 56 13 0.9 5.2 0.00 0.18 0.00 99 1010.5
20260507014810 56 14 1.7 3.5 0.00 0.18 0.00 99 1010.3
20260507014124 56 12 1.7 4.3 0.00 0.18 0.00 99 1010.2
20260507013222 56 339 0.0 2.6 0.00 0.18 0.00 99 1010.4
20260507012110 56 8 0.9 2.6 0.00 0.18 0.00 99 1010.3
20260507010524 55 3 0.0 2.6 0.00 0.18 0.00 99 1010.3
20260507005410 55 3 0.9 3.5 0.00 0.18 0.00 99 1010.4
20260507004723 55 10 1.7 3.5 0.00 0.18 0.00 99 1010.2
20260507003610 55 1 1.7 3.5 0.00 0.18 0.00 99 1010.2
20260507002710 56 21 0.9 3.5 0.00 0.18 0.00 99 1010.2
20260507002020 56 15 0.9 3.5 0.00 0.18 0.00 99 1010.3
20260507000910 55 0 0.0 0.0 0.00 0.18 0.00 99 1010.2
20260507000220 55 270 0.0 1.7 0.00 0.18 0.00 99 1010.3
20260506235323 55 360 0.0 1.7 0.00 0.18 0.00 99 1010.2
20260506234420 55 0 0.0 0.0 0.00 0.18 0.00 99 1010.2
20260506233310 56 360 0.0 1.7 0.00 0.18 0.00 99 1010.1
20260506232619 56 20 0.0 2.6 0.00 0.18 0.00 99 1010.1
20260506231722 56 13 1.7 3.5 0.00 0.18 0.00 99 1010.1
20260506230824 56 8 0.9 3.5 0.00 0.18 0.00 99 1010.1
20260506225922 56 2 0.9 2.6 0.00 0.18 0.00 99 1010.2
20260506225024 57 357 0.0 2.6 0.00 0.18 0.00 99 1010.0
20260506224121 56 0 0.0 0.0 0.00 0.18 0.00 98 1010.1
20260506223010 57 0 0.0 0.0 0.00 0.18 0.00 98 1010.2
20260506222321 57 0 0.0 0.0 0.00 0.18 0.00 98 1010.3
20260506221211 57 14 0.0 3.5 0.00 0.18 0.00 98 1010.1
20260506220310 57 16 0.9 3.5 0.00 0.18 0.00 97 1010.0
20260506215623 57 360 0.9 3.5 0.00 0.18 0.18 98 1010.1
20260506214720 57 9 0.0 2.6 0.00 0.18 0.18 97 1010.1
20260506213610 57 358 0.9 2.6 0.00 0.18 0.18 97 1010.0
20260506212920 57 2 0.0 3.5 0.00 0.18 0.18 97 1010.1
20260506211810 58 349 0.0 1.7 0.00 0.18 0.18 96 1010.1
20260506211120 58 45 0.0 1.7 0.00 0.18 0.18 96 1010.1